Pensacola, FL

3:33 PM CDT on May 24, 2018 (GMT -0500)
Pensacola Regional

Weather History for KPNS - April, 2014

Change the Weather History Date:

Sunday, April 20, 2014

  Actual Average Record
Temperature  
Mean Temperature 61 °F 68 °F  
Max Temperature 66 °F 77 °F 86 °F (1987)
Min Temperature 56 °F 59 °F 43 °F (1953)
Degree Days  
Heating Degree Days 4 1  
Month to date heating degree days 41 44  
Since 1 July heating degree days 1583 1528  
Cooling Degree Days 0 4  
Month to date cooling degree days 49 53  
Year to date cooling degree days 70 100  
Growing Degree Days 12 (Base 50)    
Moisture  
Dew Point 52 °F    
Average Humidity 72    
Maximum Humidity 86    
Minimum Humidity 58    
Precipitation  
Precipitation 0.00 in 0.15 in 3.72 in (1912)
Month to date precipitation 9.06 3.02  
Year to date precipitation 30.17 18.52  
Sea Level Pressure  
Sea Level Pressure 30.15 in    
Wind  
Wind Speed 6 mph (NNE)    
Max Wind Speed 16 mph    
Max Gust Speed 22 mph    
Visibility 10 miles    
Events      
T = Trace of Precipitation, MM = Missing Value Source: NWS Daily Summary

Daily Weather History Graph

Daily Weather History Graph

Search for Another Location

Airport or City:

Astronomy

Apr. 20, 2014 Rise Set
Actual Time 6:16 AM CDT 7:19 PM CDT
Civil Twilight 5:51 AM CDT 7:44 PM CDT
Nautical Twilight 5:21 AM CDT 8:14 PM CDT
Astronomical Twilight 4:51 AM CDT 8:44 PM CDT
Moon No Moon Rise 10:44 AM CDT (4/20)
Length of Visible Light 13h 53m
Length of Day
13h 03m
Waning Gibbous, 68% of the Moon is Illuminated
Apr 20
Waning Gibbous
Apr 22
Last Quarter
Apr 29
New
May 6
First Quarter
May 14
Full

Hourly Weather History & Observations

Time (CDT) Temp. Dew Point Humidity Pressure Visibility Wind Dir Wind Speed Gust Speed Precip Events Conditions
12:53 AM 64.0 °F 54.0 °F 70% 30.12 in 10.0 mi NE 4.6 mph - N/A   Clear
1:53 AM 62.1 °F 54.0 °F 75% 30.09 in 10.0 mi NE 4.6 mph - N/A   Clear
2:53 AM 60.1 °F 54.0 °F 80% 30.10 in 10.0 mi North 3.5 mph - N/A   Clear
3:53 AM 60.1 °F 52.0 °F 75% 30.10 in 10.0 mi NE 5.8 mph - N/A   Clear
4:53 AM 57.9 °F 52.0 °F 81% 30.12 in 10.0 mi Calm Calm - N/A   Clear
5:53 AM 57.0 °F 51.1 °F 81% 30.14 in 10.0 mi NNE 3.5 mph - N/A   Partly Cloudy
6:53 AM 57.0 °F 52.0 °F 83% 30.17 in 10.0 mi North 5.8 mph - N/A   Clear
7:53 AM 60.1 °F 53.1 °F 78% 30.18 in 10.0 mi North 6.9 mph - N/A   Clear
8:53 AM 62.1 °F 51.1 °F 67% 30.19 in 10.0 mi NNE 9.2 mph - N/A   Scattered Clouds
9:20 AM 62.1 °F 50.0 °F 65% 30.18 in 10.0 mi NE 8.1 mph - N/A   Mostly Cloudy
9:53 AM 62.1 °F 50.0 °F 65% 30.20 in 10.0 mi NNE 9.2 mph - N/A   Overcast
10:53 AM 63.0 °F 50.0 °F 63% 30.20 in 10.0 mi North 11.5 mph - N/A   Overcast
11:53 AM 63.0 °F 50.0 °F 63% 30.20 in 10.0 mi North 11.5 mph - N/A   Overcast
12:53 PM 63.0 °F 50.0 °F 63% 30.19 in 10.0 mi NNE 11.5 mph - N/A   Overcast
1:53 PM 64.9 °F 52.0 °F 63% 30.17 in 10.0 mi NNE 11.5 mph - N/A   Overcast
2:53 PM 64.9 °F 52.0 °F 63% 30.16 in 10.0 mi NNE 10.4 mph - N/A   Overcast
3:53 PM 64.9 °F 52.0 °F 63% 30.15 in 10.0 mi North 10.4 mph - N/A   Overcast
4:53 PM 66.0 °F 52.0 °F 60% 30.14 in 10.0 mi NNE 8.1 mph - N/A   Overcast
5:53 PM 64.0 °F 52.0 °F 65% 30.15 in 10.0 mi NE 5.8 mph - N/A   Overcast
6:53 PM 64.4 °F 51.8 °F 64% 30.13 in 10.0 mi Variable 3.5 mph - N/A   Overcast
7:14 PM 63.0 °F 52.0 °F 67% 30.13 in 10.0 mi ENE 3.5 mph - N/A   Partly Cloudy
7:53 PM 62.1 °F 53.1 °F 72% 30.14 in 10.0 mi Calm Calm - N/A   Clear
8:53 PM 59.0 °F 53.1 °F 81% 30.15 in 10.0 mi Calm Calm - N/A   Clear
9:53 PM 57.0 °F 53.1 °F 87% 30.16 in 10.0 mi Calm Calm - N/A   Clear
10:53 PM 57.0 °F 53.1 °F 87% 30.16 in 10.0 mi Calm Calm - N/A   Clear
11:53 PM 57.0 °F 53.1 °F 87% 30.14 in 10.0 mi Calm Calm - N/A   Clear